Weather History for Northway, AK

Change the Weather History Date:

Sunday, March 30, 2014

  Actual Average Record
Temperature  
Mean Temperature 13 °F -  
Max Temperature 36 °F 33 °F 45 °F (1966)
Min Temperature -9 °F 0 °F -32 °F (1963)
Degree Days  
Heating Degree Days 52    
Moisture  
Dew Point -2 °F    
Average Humidity 56    
Maximum Humidity 80    
Minimum Humidity 27    
Precipitation  
Precipitation 0.00 in - - ()
Snow  
Snow 0.00 in - - ()
Snow Depth 13.00 in    
Sea Level Pressure  
Sea Level Pressure 30.07 in    
Wind  
Wind Speed 2 mph (WNW)    
Max Wind Speed 8 mph    
Max Gust Speed -    
Visibility 10 miles    
Events      
Averages and records for this station are not official NWS values.
T = Trace of Precipitation, MM = Missing Value Source: NWS Daily Summary

Daily Weather History Graph

Daily Weather History Graph

Search for Another Location

Airport:

Trip Planner

Search our weather history database for the weather conditions in past years. The results will help you decide how hot, cold, wet, or windy it might be!

Date:

Astronomy

Mar. 30, 2014 Rise Set
Actual Time 6:54 AM AKDT 8:11 PM AKDT
Civil Twilight 6:06 AM AKDT 8:59 PM AKDT
Nautical Twilight 5:07 AM AKDT 9:59 PM AKDT
Astronomical Twilight 3:54 AM AKDT 11:13 PM AKDT
Moon 6:44 AM AKDT (3/30) 8:47 PM AKDT (3/30)
Length of Visible Light 14h 52m
Length of Day
13h 17m
New Moon, 0% of the Moon is Illuminated
Mar 30
New Moon
Apr 7
First Quarter
Apr 14
Full
Apr 21
Last Quarter
Apr 28
New

Hourly Weather History & Observations

Time (AKDT) Temp. Windchill Dew Point Humidity Pressure Visibility Wind Dir Wind Speed Gust Speed Precip Events Conditions
12:53 AM 1.9 °F - -4.0 °F 76% 29.94 in 10.0 mi Calm Calm - N/A   Clear
1:53 AM -0.0 °F - -6.0 °F 76% 29.95 in 10.0 mi Calm Calm - N/A   Clear
2:53 AM -2.9 °F - -8.0 °F 79% 29.97 in 10.0 mi Calm Calm - N/A   Clear
3:53 AM -5.1 °F - -9.9 °F 80% 29.98 in 10.0 mi Calm Calm - N/A   Clear
4:53 AM -7.1 °F - -11.9 °F 79% 30.00 in 10.0 mi Calm Calm - N/A   Clear
5:53 AM -9.0 °F - -14.1 °F 79% 30.02 in 10.0 mi Calm Calm - N/A   Clear
6:53 AM -9.9 °F - -15.0 °F 78% 30.03 in 10.0 mi Calm Calm - N/A   Clear
7:53 AM -8.0 °F - -13.0 °F 79% 30.06 in 10.0 mi Calm Calm - N/A   Clear
8:53 AM 1.9 °F - -4.0 °F 76% 30.07 in 10.0 mi Calm Calm - N/A   Clear
9:53 AM 10.9 °F - -2.0 °F 56% 30.08 in 10.0 mi Calm Calm - N/A   Clear
10:53 AM 15.1 °F - -0.9 °F 49% 30.08 in 10.0 mi Calm Calm - N/A   Clear
11:53 AM 21.0 °F 16.2 °F 1.0 °F 42% 30.08 in 10.0 mi SW 3.5 mph - N/A   Clear
12:53 PM 28.9 °F 22.8 °F 5.0 °F 36% 30.08 in 10.0 mi WNW 5.8 mph - N/A   Clear
1:53 PM 32.0 °F 26.4 °F 5.0 °F 32% 30.08 in 10.0 mi West 5.8 mph - N/A   Clear
2:53 PM 33.1 °F 26.1 °F 6.1 °F 32% 30.08 in 10.0 mi WNW 8.1 mph - N/A   Clear
3:53 PM 35.1 °F 28.6 °F 5.0 °F 28% 30.08 in 10.0 mi NNW 8.1 mph - N/A   Clear
4:53 PM 35.1 °F 29.3 °F 3.9 °F 27% 30.09 in 10.0 mi NW 6.9 mph - N/A   Clear
5:53 PM 34.0 °F 29.8 °F 5.0 °F 30% 30.09 in 10.0 mi WNW 4.6 mph - N/A   Clear
6:53 PM 33.1 °F 26.9 °F 5.0 °F 31% 30.10 in 10.0 mi NW 6.9 mph - N/A   Clear
7:53 PM 28.0 °F 24.2 °F 5.0 °F 38% 30.12 in 10.0 mi NNW 3.5 mph - N/A   Clear
8:53 PM 21.9 °F 15.7 °F 3.9 °F 46% 30.13 in 10.0 mi NW 4.6 mph - N/A   Clear
9:53 PM 14.0 °F - 3.0 °F 62% 30.14 in 10.0 mi Calm Calm - N/A   Clear
10:53 PM 10.0 °F - 1.0 °F 67% 30.16 in 10.0 mi Calm Calm - N/A   Clear
11:53 PM 6.1 °F -2.8 °F -0.0 °F 76% 30.17 in 10.0 mi WSW 4.6 mph - N/A   Clear